Weather in Sarata

Ukraine / Odesa District     46°01′12″N   29°40′27″E
temp.,
°C
wind,
m/s
gust,
m/s
humid.,
%
clouds,
%
prec.,
mm/h
press.,
hPa
HPBL,
m
17 june, thu
thu1700:00+15sse1196100 0.9 101218
03:00+15nne33920 0.9 101350
06:00+15n3593100 0.1 1013117
09:00+20n5672100 0.1 1013433
12:00+23nne8962100 0.8 10141241
15:00+18nw51083100 1.9 1014377
18:00+20nnw81380100 0.0 1013804
21:00+18nw61095100 0.1 1013299
18 june, fri
fri1800:00+19n61193100 2.6 1012440
03:00+19nne6119093 2.9 1012647
06:00+17nne7129479 0.0 1012598
09:00+20ne9117651 0.1 1012994
12:00+22ene11136776 0.9 10121407
15:00+20ene9147971 1.6 10121175
18:00+20ene101487100 1.5 1012962
21:00+18e8149299 2.0 1014681
19 june, sat
sat1900:00+18e81295100 0.4 1013739
03:00+18ese61195100 3.9 1014666
06:00+18e71290100 2.0 1014694
09:00+18e5990100 4.8 1015683
12:00+19ene499033 2.8 1016475
15:00+23e5770100 3.6 1014887
18:00+24e4761100 0.0 1014837
21:00+21ne227912 0.1 101411
20 june, sun
sun2000:00+18nne228896 1.3 101420
03:00+18n349231 3.6 101366
06:00+18nne48965 0.1 1012187
09:00+22ne567799 0.2 1012622
12:00+25ne6663100 0.0 10121332
15:00+25ene4561100 0.1 10111290
18:00+25nne3459100 0.0 10101177
21:00+21n358079 0.0 101079
21 june, mon
mon2100:00+21n3479100 0.0 101092
03:00+21nnw2281100 0.1 101040
06:00+20n2386100 0.0 101057
09:00+23nne1173100 0.0 1011552
12:00+27nne115898 0.0 10101315
15:00+29se325179 0.1 10101512
18:00+26sse446391 0.1 1010410
21:00+22s347894 0.6 101186